OPS 4682 DEB, 38424

Orbit data source: Space-Track

OPS 4682 DEB, 38424 is space debris in LEO originally from a launch on Sat, 03 Apr 1965 UTC launched from the Air Force Western Test Range (AFWTR). Debris objects in space refer to the collection of defunct objects orbiting the Earth. Examples of debris include non-operational satellites, rocket bodies, and fragments generated from explosions, collisions, or faulty payload assembly.

Loading next visibility...
Identifier
38424, 1965-027ED
Orbit
LEO
Country
Flag of USUS
Related business
Manufacturer
Unknown
Mission
Spacecraft
Bus & Motor
Unknown
Mass
Unknown
Launch date (UTC)
1965-04-03 (61 years ago)
Launch vehicle
Unknown
Launch site
Air Force Western Test Range (AFWTR)
Object type
Payload
Rocket body
Debris
Shape & HBR
Unknown shape, 0.1 m
Radar Cross Section
Small (<0.1 m²)

Expand to show TLE details & history
Last TLE update: 21 hours ago

TLE from 21 hours ago
0 OPS 4682 DEB
1 38424U 65027ED  26103.67632527 -.00000628  00000-0 -19950-2 0  9995
2 38424  90.2550   5.7893 0026703 327.4282  32.5194 13.03916019303421
Epoch: 2026-04-13T16:13Z
TLE epoch observation values (Epoch: 2026-04-13T16:13:54.503Z)
Latitude
-0.00002°
Longitude
-79.5513°
Altitude
1,232.515 km
Speed
7.247 km/s
True Right ascension
00h 23m 09s
True Declination
0° 00' 00"
Sunlit
Object was in daylight at epoch
Visualization orbit readout
Latitude
Unknown
Longitude
Unknown
Altitude
Unknown
Speed
Unknown
Apparent Right ascension
Unknown
Apparent Declination
Unknown
Sunlit
N/A
Visualization observer readout
Local Sidereal Time
19:59:46
Azimuth
Unknown
Elevation
Unknown
Doppler factor
Unknown
Orbital elements
Apogee altitude
1,264.256 km
Perigee altitude
1,223.55 km
Semi-major axis
7,622.04 km
Eccentricity
0.00267
Inclination
90.255°
RAAN
5.7893°
Arg. of periapsis
327.4282°
True anomaly
32.68436°
Mean anomaly
32.5194°
Eccentric anomaly
32.60183°
Mean motion
3.26164 °/min
Orbital period
110.37 mins
BSTAR
-0.001995
Loading maneuver chart data...
Computing Atmospheric mass density...
Loading historical data...
Loading historical data...
Loading historical data...
Loading historical data...
Loading historical data...
Loading historical data...
Loading historical data...

Documentation

Showing up to 5 results
|